AT&T T-16

Last updated on Sat Aug 15 2026 00:03:01 GMT+0000 (Coordinated Universal Time)

1 44333U 19034A 26226.19161176 -.00000131 00000+0 00000+0 0 9998 2 44333 0.0185 90.4224 0000444 284.6779 275.6288 1.00272860 26214
UTC large
Height (km)
Speed (km/s)
/
Latitude / Longitude
Inclination (degrees)
Orbital Period (minutes)
Azimuth
Elevation
Range (km)
Doppler Factor

Next 0 passes for location: London (51.5072 / 0.1276)

No passes found over London.
AT&T T-16